User: anonymous   Login
Location: Unspecified
(43.0000°N, 0.0000°E)
Time: 04:56:15
(UTC+00:00)
Language:

UNISAT 6 - Orbit

View from above orbital plane
View from above orbital plane
View from above satellite
View from above satellite

Ground track
Ground track

The orbit data is extracted from the following two-line orbital elements,

1 40012U 14033C   19229.21026967  .00000096  00000-0  21925-4 0  9992
2 40012  97.7499  93.2354 0056823 265.8950  93.5763 14.73995188277452
Epoch (UTC): 17 August 2019 05:02:47
Eccentricity: 0.0056823
inclination: 97.7499°
perigee height: 608 km
apogee height: 688 km
right ascension of ascending node: 93.2354°
argument of perigee: 265.8950°
revolutions per day: 14.73995188
mean anomaly at epoch: 93.5763°
orbit number at epoch: 27745

The dashed part of the orbit path shows where the satellite is in the earth's shadow,  

DLR